Time,TemperatureF,DewpointF,PressureIn,WindDirection,WindDirectionDegrees,WindSpeedMPH,WindSpeedGustMPH,Humidity,HourlyPrecipIn,Conditions,Clouds,dailyrainin,SoftwareType,DateUTC
2013-03-16 00:00:00,45.8,34.7,29.77,WNW,300,0.0,0.0,65,0.00,,,0.00,Wunderground v.1.15,2013-03-16 04:00:00,
2013-03-16 00:10:00,45.5,34.8,29.77,WNW,300,0.0,0.0,66,0.00,,,0.00,Wunderground v.1.15,2013-03-16 04:10:00,
2013-03-16 00:20:00,45.3,35.0,29.77,WNW,300,0.0,0.0,67,0.00,,,0.00,Wunderground v.1.15,2013-03-16 04:20:00,
2013-03-16 00:30:00,45.0,34.7,29.77,WNW,300,0.0,0.0,67,0.00,,,0.00,Wunderground v.1.15,2013-03-16 04:30:00,
2013-03-16 00:40:00,44.9,34.6,29.77,WNW,300,0.0,0.0,67,0.00,,,0.00,Wunderground v.1.15,2013-03-16 04:40:00,
2013-03-16 00:50:00,44.6,34.7,29.76,WNW,300,0.0,1.0,68,0.00,,,0.00,Wunderground v.1.15,2013-03-16 04:50:00,
2013-03-16 01:00:00,44.5,35.0,29.76,WNW,300,0.0,0.0,69,0.00,,,0.00,Wunderground v.1.15,2013-03-16 05:00:00,
2013-03-16 01:10:00,44.6,35.1,29.76,WNW,299,0.0,0.0,69,0.00,,,0.00,Wunderground v.1.15,2013-03-16 05:10:00,
2013-03-16 01:20:00,44.8,35.2,29.75,WNW,299,0.0,0.0,69,0.00,,,0.00,Wunderground v.1.15,2013-03-16 05:20:00,
2013-03-16 01:30:00,44.9,35.3,29.75,WNW,299,0.0,0.0,69,0.00,,,0.00,Wunderground v.1.15,2013-03-16 05:30:00,
2013-03-16 01:40:00,44.9,35.3,29.74,WNW,299,0.0,0.0,69,0.00,,,0.00,Wunderground v.1.15,2013-03-16 05:40:00,
2013-03-16 01:50:00,45.0,35.4,29.74,WNW,300,0.0,0.0,69,0.00,,,0.00,Wunderground v.1.15,2013-03-16 05:50:00,
2013-03-16 02:00:00,45.1,35.5,29.74,WNW,300,0.0,0.0,69,0.00,,,0.00,Wunderground v.1.15,2013-03-16 06:00:00,
2013-03-16 02:10:00,45.0,35.4,29.74,WNW,300,0.0,1.0,69,0.00,,,0.00,Wunderground v.1.15,2013-03-16 06:10:00,
2013-03-16 02:20:00,44.8,35.2,29.73,WNW,300,0.0,0.0,69,0.00,,,0.00,Wunderground v.1.15,2013-03-16 06:20:00,
2013-03-16 02:30:00,44.6,35.4,29.73,WNW,300,0.0,0.0,70,0.00,,,0.00,Wunderground v.1.15,2013-03-16 06:30:00,
2013-03-16 02:40:00,44.3,35.1,29.73,WNW,299,0.0,0.0,70,0.00,,,0.00,Wunderground v.1.15,2013-03-16 06:40:00,
2013-03-16 02:50:00,44.0,35.2,29.72,WNW,299,0.0,0.0,71,0.00,,,0.00,Wunderground v.1.15,2013-03-16 06:50:00,
2013-03-16 03:00:00,43.9,35.5,29.72,WNW,300,0.0,0.0,72,0.00,,,0.00,Wunderground v.1.15,2013-03-16 07:00:00,
2013-03-16 03:10:00,43.8,35.0,29.72,WNW,300,0.0,0.0,71,0.00,,,0.00,Wunderground v.1.15,2013-03-16 07:10:00,
2013-03-16 03:20:00,43.7,35.3,29.71,WNW,299,0.0,0.0,72,0.00,,,0.00,Wunderground v.1.15,2013-03-16 07:20:00,
2013-03-16 03:30:00,43.3,34.9,29.71,WNW,300,0.0,0.0,72,0.00,,,0.00,Wunderground v.1.15,2013-03-16 07:30:00,
2013-03-16 03:40:00,42.7,34.6,29.70,WNW,300,0.0,0.0,73,0.00,,,0.00,Wunderground v.1.15,2013-03-16 07:40:00,
2013-03-16 03:50:00,42.3,34.9,29.70,WNW,299,0.0,0.0,75,0.00,,,0.00,Wunderground v.1.15,2013-03-16 07:50:00,
2013-03-16 04:00:00,41.9,34.9,29.69,WNW,300,0.0,0.0,76,0.00,,,0.00,Wunderground v.1.15,2013-03-16 08:00:00,
2013-03-16 04:10:00,41.8,34.8,29.68,WNW,300,0.0,0.0,76,0.00,,,0.00,Wunderground v.1.15,2013-03-16 08:10:00,
2013-03-16 04:20:00,41.9,35.2,29.68,WNW,299,0.0,0.0,77,0.00,,,0.00,Wunderground v.1.15,2013-03-16 08:20:00,
2013-03-16 04:30:00,42.3,35.6,29.67,WNW,299,0.0,0.0,77,0.00,,,0.00,Wunderground v.1.15,2013-03-16 08:30:00,
2013-03-16 04:40:00,42.6,35.6,29.67,WNW,300,0.0,0.0,76,0.00,,,0.00,Wunderground v.1.15,2013-03-16 08:40:00,
2013-03-16 04:50:00,42.7,35.7,29.67,WNW,299,0.0,0.0,76,0.00,,,0.00,Wunderground v.1.15,2013-03-16 08:50:00,
2013-03-16 05:00:00,42.7,35.7,29.67,WNW,300,0.0,0.0,76,0.00,,,0.00,Wunderground v.1.15,2013-03-16 09:00:00,
2013-03-16 05:10:00,42.6,35.6,29.67,WNW,300,0.0,0.0,76,0.00,,,0.00,Wunderground v.1.15,2013-03-16 09:10:00,
2013-03-16 05:20:00,42.4,35.4,29.67,WNW,299,0.0,0.0,76,0.00,,,0.00,Wunderground v.1.15,2013-03-16 09:20:00,
2013-03-16 05:30:00,41.8,35.1,29.66,WNW,299,0.0,0.0,77,0.00,,,0.00,Wunderground v.1.15,2013-03-16 09:30:00,
2013-03-16 05:40:00,41.5,35.2,29.66,WNW,300,0.0,0.0,78,0.00,,,0.00,Wunderground v.1.15,2013-03-16 09:40:00,
2013-03-16 05:50:00,41.1,35.1,29.66,WNW,299,0.0,0.0,79,0.00,,,0.00,Wunderground v.1.15,2013-03-16 09:50:00,
2013-03-16 06:00:00,40.8,34.8,29.66,WNW,299,0.0,0.0,79,0.00,,,0.00,Wunderground v.1.15,2013-03-16 10:00:00,
2013-03-16 06:10:00,40.5,34.8,29.66,WNW,300,0.0,0.0,80,0.00,,,0.00,Wunderground v.1.15,2013-03-16 10:10:00,
2013-03-16 06:20:00,40.8,35.7,29.68,North,349,0.0,1.0,82,0.00,,,0.00,Wunderground v.1.15,2013-03-16 10:20:00,
2013-03-16 06:30:00,43.8,40.8,29.67,WSW,253,3.0,3.0,89,0.18,,,0.04,Wunderground v.1.15,2013-03-16 10:30:00,
2013-03-16 06:40:00,45.3,42.5,29.67,West,259,2.0,5.0,90,0.09,,,0.05,Wunderground v.1.15,2013-03-16 10:40:00,
2013-03-16 06:50:00,46.3,43.5,29.67,WSW,246,3.0,4.0,90,0.04,,,0.05,Wunderground v.1.15,2013-03-16 10:50:00,
2013-03-16 07:00:00,47.0,43.9,29.67,WSW,250,3.0,3.0,89,0.00,,,0.05,Wunderground v.1.15,2013-03-16 11:00:00,
2013-03-16 07:10:00,47.4,44.0,29.67,SW,214,3.0,5.0,88,0.00,,,0.05,Wunderground v.1.15,2013-03-16 11:10:00,
2013-03-16 07:20:00,47.8,43.8,29.67,SSW,195,3.0,4.0,86,0.00,,,0.05,Wunderground v.1.15,2013-03-16 11:20:00,
2013-03-16 07:30:00,47.8,43.5,29.67,WSW,251,2.0,2.0,85,0.00,,,0.05,Wunderground v.1.15,2013-03-16 11:30:00,
2013-03-16 07:40:00,47.7,43.1,29.67,WNW,302,1.0,6.0,84,0.00,,,0.05,Wunderground v.1.15,2013-03-16 11:40:00,
2013-03-16 07:50:00,48.0,43.4,29.67,WNW,302,3.0,8.0,84,0.00,,,0.05,Wunderground v.1.15,2013-03-16 11:50:00,
2013-03-16 08:00:00,48.2,43.3,29.67,West,268,3.0,3.0,83,0.00,,,0.05,Wunderground v.1.15,2013-03-16 12:00:00,
2013-03-16 08:10:00,48.4,43.5,29.67,SE,144,1.0,4.0,83,0.00,,,0.05,Wunderground v.1.15,2013-03-16 12:10:00,
2013-03-16 08:20:00,48.3,43.1,29.67,WNW,290,1.0,2.0,82,0.00,,,0.05,Wunderground v.1.15,2013-03-16 12:20:00,
2013-03-16 08:30:00,48.5,43.6,29.67,West,273,2.0,2.0,83,0.00,,,0.05,Wunderground v.1.15,2013-03-16 12:30:00,
2013-03-16 08:40:00,48.9,44.0,29.67,South,174,1.0,1.0,83,0.00,,,0.05,Wunderground v.1.15,2013-03-16 12:40:00,
2013-03-16 08:50:00,49.2,44.3,29.67,West,281,1.0,1.0,83,0.00,,,0.05,Wunderground v.1.15,2013-03-16 12:50:00,
2013-03-16 09:00:00,49.6,44.3,29.67,WSW,241,1.0,2.0,82,0.00,,,0.05,Wunderground v.1.15,2013-03-16 13:00:00,
2013-03-16 09:10:00,50.3,45.0,29.67,WSW,245,1.0,1.0,82,0.00,,,0.05,Wunderground v.1.15,2013-03-16 13:10:00,
2013-03-16 09:20:00,50.7,45.4,29.66,South,186,1.0,3.0,82,0.00,,,0.05,Wunderground v.1.15,2013-03-16 13:20:00,
2013-03-16 09:30:00,51.3,45.7,29.66,South,182,1.0,1.0,81,0.00,,,0.05,Wunderground v.1.15,2013-03-16 13:30:00,
2013-03-16 09:40:00,52.5,46.5,29.66,WSW,242,2.0,2.0,80,0.00,,,0.05,Wunderground v.1.15,2013-03-16 13:40:00,
2013-03-16 09:50:00,53.8,46.8,29.65,West,277,2.0,9.0,77,0.00,,,0.05,Wunderground v.1.15,2013-03-16 13:50:00,
2013-03-16 10:00:00,54.8,47.0,29.65,West,263,4.0,4.0,75,0.00,,,0.05,Wunderground v.1.15,2013-03-16 14:00:00,
2013-03-16 10:10:00,55.5,47.3,29.64,West,273,5.0,6.0,74,0.00,,,0.05,Wunderground v.1.15,2013-03-16 14:10:00,
2013-03-16 10:20:00,56.6,48.4,29.64,WNW,299,4.0,4.0,74,0.00,,,0.05,Wunderground v.1.15,2013-03-16 14:20:00,
2013-03-16 10:30:00,57.4,48.1,29.63,WSW,246,5.0,5.0,71,0.00,,,0.05,Wunderground v.1.15,2013-03-16 14:30:00,
2013-03-16 10:40:00,57.9,48.2,29.63,West,259,6.0,6.0,70,0.00,,,0.05,Wunderground v.1.15,2013-03-16 14:40:00,
2013-03-16 10:50:00,58.7,48.2,29.62,SSW,201,6.0,6.0,68,0.00,,,0.05,Wunderground v.1.15,2013-03-16 14:50:00,
2013-03-16 11:00:00,59.5,48.9,29.62,West,269,5.0,7.0,68,0.00,,,0.05,Wunderground v.1.15,2013-03-16 15:00:00,
2013-03-16 11:10:00,60.5,49.1,29.61,SW,231,6.0,6.0,66,0.00,,,0.05,Wunderground v.1.15,2013-03-16 15:10:00,
2013-03-16 11:20:00,61.8,48.6,29.61,West,280,5.0,7.0,62,0.00,,,0.05,Wunderground v.1.15,2013-03-16 15:20:00,
2013-03-16 11:30:00,62.6,49.0,29.60,WSW,257,5.0,5.0,61,0.00,,,0.05,Wunderground v.1.15,2013-03-16 15:30:00,
2013-03-16 11:40:00,63.7,49.5,29.60,South,169,5.0,5.0,60,0.00,,,0.05,Wunderground v.1.15,2013-03-16 15:40:00,
2013-03-16 11:50:00,63.5,48.9,29.60,West,264,8.0,17.0,59,0.00,,,0.05,Wunderground v.1.15,2013-03-16 15:50:00,
2013-03-16 12:00:00,64.3,49.7,29.59,SSW,204,7.0,7.0,59,0.00,,,0.05,Wunderground v.1.15,2013-03-16 16:00:00,
2013-03-16 12:10:00,65.4,49.3,29.59,WNW,286,6.0,8.0,56,0.00,,,0.05,Wunderground v.1.15,2013-03-16 16:10:00,
2013-03-16 12:20:00,66.1,49.5,29.59,WSW,251,6.0,6.0,55,0.00,,,0.05,Wunderground v.1.15,2013-03-16 16:20:00,
2013-03-16 12:30:00,66.2,49.1,29.58,WSW,252,7.0,7.0,54,0.00,,,0.05,Wunderground v.1.15,2013-03-16 16:30:00,
2013-03-16 12:40:00,66.8,49.6,29.58,West,262,6.0,6.0,54,0.00,,,0.05,Wunderground v.1.15,2013-03-16 16:40:00,
2013-03-16 12:50:00,67.3,50.1,29.58,WSW,256,6.0,6.0,54,0.00,,,0.05,Wunderground v.1.15,2013-03-16 16:50:00,
2013-03-16 13:00:00,67.6,49.3,29.57,West,279,7.0,7.0,52,0.00,,,0.05,Wunderground v.1.15,2013-03-16 17:00:00,
2013-03-16 13:10:00,67.8,50.0,29.57,NNW,340,6.0,6.0,53,0.00,,,0.05,Wunderground v.1.15,2013-03-16 17:10:00,
2013-03-16 13:20:00,69.0,50.6,29.57,WNW,286,5.0,6.0,52,0.00,,,0.05,Wunderground v.1.15,2013-03-16 17:20:00,
2013-03-16 13:30:00,68.7,50.4,29.57,NW,313,7.0,7.0,52,0.00,,,0.05,Wunderground v.1.15,2013-03-16 17:30:00,
2013-03-16 13:40:00,68.9,50.5,29.57,West,281,6.0,9.0,52,0.00,,,0.05,Wunderground v.1.15,2013-03-16 17:40:00,
2013-03-16 13:50:00,68.8,49.9,29.57,WNW,290,6.0,11.0,51,0.00,,,0.05,Wunderground v.1.15,2013-03-16 17:50:00,
2013-03-16 14:00:00,68.1,49.8,29.55,NW,304,7.0,9.0,52,0.00,,,0.05,Wunderground v.1.15,2013-03-16 18:00:00,
2013-03-16 14:10:00,67.7,49.4,29.56,West,280,7.0,7.0,52,0.00,,,0.05,Wunderground v.1.15,2013-03-16 18:10:00,
2013-03-16 14:20:00,68.3,50.5,29.55,SSW,209,5.0,5.0,53,0.00,,,0.05,Wunderground v.1.15,2013-03-16 18:20:00,
2013-03-16 14:30:00,68.9,50.0,29.55,SSW,192,6.0,6.0,51,0.00,,,0.05,Wunderground v.1.15,2013-03-16 18:30:00,
2013-03-16 14:40:00,69.9,50.4,29.54,WNW,287,5.0,7.0,50,0.00,,,0.05,Wunderground v.1.15,2013-03-16 18:40:00,
2013-03-16 14:50:00,70.0,51.0,29.54,West,269,8.0,8.0,51,0.00,,,0.05,Wunderground v.1.15,2013-03-16 18:50:00,
2013-03-16 15:00:00,70.5,50.4,29.53,West,267,7.0,8.0,49,0.00,,,0.05,Wunderground v.1.15,2013-03-16 19:00:00,
2013-03-16 15:10:00,71.4,50.7,29.53,NW,319,6.0,7.0,48,0.00,,,0.05,Wunderground v.1.15,2013-03-16 19:10:00,
2013-03-16 15:20:00,71.5,51.3,29.51,NNE,16,7.0,7.0,49,0.00,,,0.05,Wunderground v.1.15,2013-03-16 19:20:00,
2013-03-16 15:30:00,72.3,51.5,29.51,West,276,5.0,7.0,48,0.00,,,0.05,Wunderground v.1.15,2013-03-16 19:30:00,
2013-03-16 15:40:00,71.4,50.7,29.50,SW,221,8.0,8.0,48,0.00,,,0.05,Wunderground v.1.15,2013-03-16 19:40:00,
2013-03-16 15:50:00,70.8,50.7,29.50,West,280,8.0,11.0,49,0.00,,,0.05,Wunderground v.1.15,2013-03-16 19:50:00,
2013-03-16 16:00:00,71.0,50.3,29.50,South,186,7.0,7.0,48,0.00,,,0.05,Wunderground v.1.15,2013-03-16 20:00:00,
2013-03-16 16:10:00,71.3,50.6,29.50,WNW,286,7.0,7.0,48,0.00,,,0.05,Wunderground v.1.15,2013-03-16 20:10:00,
2013-03-16 16:20:00,71.2,49.4,29.50,NNW,327,6.0,7.0,46,0.00,,,0.05,Wunderground v.1.15,2013-03-16 20:20:00,
2013-03-16 16:30:00,70.6,49.4,29.49,SSW,206,7.0,7.0,47,0.00,,,0.05,Wunderground v.1.15,2013-03-16 20:30:00,
2013-03-16 16:40:00,70.6,49.4,29.49,West,275,7.0,8.0,47,0.00,,,0.05,Wunderground v.1.15,2013-03-16 20:40:00,
2013-03-16 16:50:00,70.7,49.5,29.50,NW,318,8.0,8.0,47,0.00,,,0.05,Wunderground v.1.15,2013-03-16 20:50:00,
2013-03-16 17:00:00,70.2,49.0,29.50,West,261,7.0,12.0,47,0.00,,,0.05,Wunderground v.1.15,2013-03-16 21:00:00,
2013-03-16 17:10:00,68.9,50.5,29.52,WNW,293,7.0,7.0,52,0.00,,,0.05,Wunderground v.1.15,2013-03-16 21:10:00,
2013-03-16 17:20:00,64.7,51.8,29.56,NW,307,10.0,11.0,63,0.14,,,0.07,Wunderground v.1.15,2013-03-16 21:20:00,
2013-03-16 17:30:00,60.6,51.5,29.56,WNW,286,7.0,7.0,72,0.05,,,0.07,Wunderground v.1.15,2013-03-16 21:30:00,
2013-03-16 17:40:00,59.6,50.9,29.57,NW,306,5.0,5.0,73,0.00,,,0.07,Wunderground v.1.15,2013-03-16 21:40:00,
2013-03-16 17:50:00,59.4,50.4,29.58,NNW,329,5.0,5.0,72,0.00,,,0.07,Wunderground v.1.15,2013-03-16 21:50:00,
2013-03-16 18:00:00,59.8,51.1,29.58,West,279,5.0,5.0,73,0.00,,,0.07,Wunderground v.1.15,2013-03-16 22:00:00,
2013-03-16 18:10:00,60.0,51.7,29.58,SSW,209,3.0,4.0,74,0.00,,,0.07,Wunderground v.1.15,2013-03-16 22:10:00,
2013-03-16 18:20:00,60.0,52.1,29.59,SSE,157,3.0,4.0,75,0.00,,,0.07,Wunderground v.1.15,2013-03-16 22:20:00,
2013-03-16 18:30:00,60.0,52.4,29.59,WNW,283,3.0,3.0,76,0.00,,,0.07,Wunderground v.1.15,2013-03-16 22:30:00,
2013-03-16 18:40:00,60.0,52.4,29.59,West,271,2.0,4.0,76,0.00,,,0.07,Wunderground v.1.15,2013-03-16 22:40:00,
2013-03-16 18:50:00,59.9,52.3,29.60,WNW,290,3.0,4.0,76,0.00,,,0.07,Wunderground v.1.15,2013-03-16 22:50:00,
2013-03-16 19:00:00,59.7,51.8,29.60,WNW,296,3.0,3.0,75,0.00,,,0.07,Wunderground v.1.15,2013-03-16 23:00:00,
2013-03-16 19:10:00,59.4,51.5,29.60,West,281,3.0,12.0,75,0.00,,,0.07,Wunderground v.1.15,2013-03-16 23:10:00,
2013-03-16 19:20:00,59.0,51.1,29.61,SW,215,3.0,3.0,75,0.00,,,0.07,Wunderground v.1.15,2013-03-16 23:20:00,
2013-03-16 19:30:00,59.0,51.4,29.62,WNW,288,2.0,2.0,76,0.00,,,0.07,Wunderground v.1.15,2013-03-16 23:30:00,
2013-03-16 19:40:00,58.8,51.6,29.61,WSW,240,2.0,2.0,77,0.00,,,0.07,Wunderground v.1.15,2013-03-16 23:40:00,
2013-03-16 19:50:00,58.5,51.3,29.62,WSW,254,2.0,2.0,77,0.00,,,0.07,Wunderground v.1.15,2013-03-16 23:50:00,
2013-03-16 20:00:00,58.3,51.1,29.63,West,280,3.0,3.0,77,0.00,,,0.07,Wunderground v.1.15,2013-03-17 00:00:00,
2013-03-16 20:10:00,58.1,51.3,29.63,North,355,3.0,3.0,78,0.00,,,0.07,Wunderground v.1.15,2013-03-17 00:10:00,
2013-03-16 20:20:00,57.8,51.0,29.64,WNW,296,2.0,2.0,78,0.00,,,0.07,Wunderground v.1.15,2013-03-17 00:20:00,
2013-03-16 20:30:00,57.7,50.9,29.64,SW,229,2.0,2.0,78,0.00,,,0.07,Wunderground v.1.15,2013-03-17 00:30:00,
2013-03-16 20:40:00,57.5,50.7,29.64,West,269,1.0,2.0,78,0.00,,,0.07,Wunderground v.1.15,2013-03-17 00:40:00,
2013-03-16 20:50:00,57.3,50.5,29.65,West,264,1.0,2.0,78,0.00,,,0.07,Wunderground v.1.15,2013-03-17 00:50:00,
2013-03-16 21:00:00,57.2,50.7,29.65,West,271,2.0,2.0,79,0.00,,,0.07,Wunderground v.1.15,2013-03-17 01:00:00,
2013-03-16 21:10:00,57.1,50.3,29.65,WNW,282,1.0,5.0,78,0.00,,,0.07,Wunderground v.1.15,2013-03-17 01:10:00,
2013-03-16 21:20:00,57.4,49.9,29.66,NNW,328,4.0,4.0,76,0.00,,,0.07,Wunderground v.1.15,2013-03-17 01:20:00,
2013-03-16 21:30:00,57.9,49.7,29.66,NW,306,3.0,5.0,74,0.00,,,0.07,Wunderground v.1.15,2013-03-17 01:30:00,
2013-03-16 21:40:00,58.1,49.9,29.66,NNW,333,3.0,3.0,74,0.00,,,0.07,Wunderground v.1.15,2013-03-17 01:40:00,
2013-03-16 21:50:00,58.1,49.9,29.67,NNW,336,3.0,3.0,74,0.00,,,0.07,Wunderground v.1.15,2013-03-17 01:50:00,
2013-03-16 22:00:00,58.0,49.8,29.68,NNW,337,3.0,3.0,74,0.00,,,0.07,Wunderground v.1.15,2013-03-17 02:00:00,
2013-03-16 22:10:00,57.8,49.2,29.68,NW,323,5.0,5.0,73,0.00,,,0.07,Wunderground v.1.15,2013-03-17 02:10:00,
2013-03-16 22:20:00,57.6,49.4,29.68,NNW,336,4.0,5.0,74,0.00,,,0.07,Wunderground v.1.15,2013-03-17 02:20:00,
2013-03-16 22:30:00,57.1,49.2,29.69,North,355,3.0,3.0,75,0.00,,,0.07,Wunderground v.1.15,2013-03-17 02:30:00,
2013-03-16 22:40:00,56.5,49.4,29.69,NNE,22,2.0,3.0,77,0.00,,,0.07,Wunderground v.1.15,2013-03-17 02:40:00,
2013-03-16 22:50:00,56.0,49.6,29.69,NW,316,2.0,4.0,79,0.00,,,0.07,Wunderground v.1.15,2013-03-17 02:50:00,
2013-03-16 23:00:00,55.7,49.3,29.70,North,355,2.0,2.0,79,0.00,,,0.07,Wunderground v.1.15,2013-03-17 03:00:00,
2013-03-16 23:10:00,55.4,49.3,29.69,NNW,342,1.0,1.0,80,0.00,,,0.07,Wunderground v.1.15,2013-03-17 03:10:00,
2013-03-16 23:20:00,55.2,49.1,29.69,NW,324,1.0,2.0,80,0.00,,,0.07,Wunderground v.1.15,2013-03-17 03:20:00,
2013-03-16 23:30:00,55.0,48.9,29.70,NW,323,1.0,1.0,80,0.00,,,0.07,Wunderground v.1.15,2013-03-17 03:30:00,
2013-03-16 23:40:00,54.7,49.0,29.71,WSW,241,0.0,1.0,81,0.00,,,0.07,Wunderground v.1.15,2013-03-17 03:40:00,
2013-03-16 23:50:00,54.3,48.6,29.71,WSW,239,0.0,0.0,81,0.00,,,0.07,Wunderground v.1.15,2013-03-17 03:50:00,